Showing default

GONETS M 17, 46486

Orbit data source: Space-Track

GONETS M 17, 46486 is a payload satellite owned by Gonets (CIS) in LEO that was launched on Mon, 28 Sep 2020 UTC via a SOYUZ-2-1B launch vehicle from the Plesetsk Missile And Space Complex (PKMTR). Payloads include a variety of satellites, spacecraft, and rockets equipped with specific instruments for various scientific and technological missions. These include communications satellites like Starlink; space stations such as the ISS; scientific satellites like the Hubble; Earth observation satellites from companies like Planet Labs, Umbra, and HawkEye 360; GPS; miniature CubeSats for education and research; and military/defense satellites.

Loading next visibility...
GONETS M 17 details
Identifier
46486, 2020-068A
Orbit
LEO
Last TLE update8 hours ago
Origin
Flag of CISGonets (CIS)
ManufacturerResehetnev ISS
MissionOperational Commercial Communications
Bus & MotorSTRELA-3M, Unknown motor
Mass225 kg wet, 225 kg dry
Launch date (UTC)
2020-09-28 (4 years ago)
Launch vehicle
SOYUZ-2-1B
Launch site
Plesetsk Missile And Space Complex (PKMTR)
Object type
Payload
Rocket body
Debris
Shape & HBRCyl + 1 Ant, 7 m
Radar Cross Section1.798 m², Large (>1 m²)

Expand to show TLE details & history

TLE from 8 hours ago
0 GONETS M 17
1 46486U 20068A   24361.24319479  .00000042  00000-0  23157-3 0  9996
2 46486  82.4987 322.1379 0023606 126.1725 234.1543 12.42884225192334
Epoch: 2024-12-26T05:50Z
Definitive object data (Epoch: 2024-12-26T05:50:12.029Z)
Latitude-0.00003°
Longitude139.36239°
Altitude1,508.013 km
Speed7.106 km/s
True Right ascension21h 28m 33s
True Declination0° 00' 00"
Sunlit
Object was in daylight at TLE epoch
Visualization TLE readout
Latitude-2.24712°
Longitude138.86788°
Altitude1,508.738 km
Speed7.105 km/s
Apparent Right ascension22h 44m 41s
Apparent Declination-20° 44' 56"
Sunlit
Object is in daylight
Visualization observer readout
Local Sidereal Time12:54:50
Azimuth65.034° ENE
Elevation-56.305°
Doppler factor1
Orbital elements
Apogee altitude1,510.329 km
Perigee altitude1,473.174 km
Semi-major axis7,869.889 km
Eccentricity0.0023606
Inclination82.4987°
RAAN322.1379°
Arg. of periapsis126.1725°
True anomaly233.93541°
Mean anomaly234.1543°
Eccentric anomaly234.04482°
Mean motion3.10878 °/min
BSTAR0.00023157
Orbital period115.8 mins
Loading maneuver chart data...
Loading historical data...
Loading historical data...
Loading historical data...
Loading historical data...
Loading historical data...
Loading historical data...
Loading historical data...

GONETS M 17 Visibility forecast

Observer location: undefined°, undefined

Span
Click to sort rows by Start time (UTC) header in descending order
Start Az.
Max El. time (UTC)
Max El. Az.
Max El.
End time (UTC)
End Az.
15 mins2024-12-26 21:23:08.250Z150.695° SSE2024-12-26 21:30:08.250Z90.949° ESE33.325°2024-12-26 21:38:08.250Z21.795° NNE
15 mins2024-12-26 23:20:08.250Z220.751° SW2024-12-26 23:27:08.250Z286.365° WNW33.964°2024-12-26 23:35:08.250Z355.07° N
9 mins2024-12-27 07:36:08.250Z33.225° NE2024-12-27 07:40:08.250Z65.459° ENE17.941°2024-12-27 07:45:08.250Z102.866° ESE
15 mins2024-12-27 09:31:08.250Z351.655° N2024-12-27 09:38:08.250Z204.737° SW44.897°2024-12-27 09:46:08.250Z176.182° S
7 mins2024-12-27 11:30:08.250Z307.515° NW2024-12-27 11:33:08.250Z284.846° WNW15.457°2024-12-27 11:37:08.250Z254.958° W
|